Location: Ruoms
(44.4535°N, 4.3426°E)
Time: 15:14:33
(UTC+00:00)

Daily predictions for brighter satellites

Satellite Brightness Start Highest point End
(mag) Time Altitude Azimuth Time Altitude Azimuth Time Altitude Azimuth
USA 229 DEB 3.7 17:40:36 10° SW 17:47:08 88° NW 17:54:02 10° NE
USA 229 3.7 17:40:42 10° SW 17:47:14 89° WNW 17:54:08 10° NE
Cosmos 1470 Rocket 4.3 17:45:10 10° SSE 17:48:59 30° E 17:52:50 10° NNE
STARLINK-54 4.4 17:46:04 10° W 17:49:56 44° NNW 17:53:49 10° NE
STARLINK-1057 3.8 17:46:10 10° SW 17:50:15 60° SE 17:54:20 10° ENE
STARLINK-1025 3.9 17:47:04 10° W 17:50:15 44° NNW 17:53:26 10° NE
STARLINK-77 4.4 17:47:30 10° W 17:51:23 46° NNW 17:55:17 10° NE
STARLINK-1017 4.0 17:48:44 10° W 17:51:55 43° NNW 17:55:06 10° NE
STARLINK-25 4.4 17:49:11 10° W 17:53:03 45° NNW 17:56:56 10° NE
Centaur D AC-28 4.4 17:39:10 10° WSW 17:53:45 27° SSW 17:58:28 10° SE
NOSS 3-1 (A) 3.3 17:48:59 10° SSW 17:54:23 68° ESE 18:00:38 10° NE
STARLINK-1034 3.7 17:51:06 10° SW 17:55:11 66° SE 17:59:18 10° ENE
Cosmos 1862 Rocket 3.8 17:52:06 10° N 17:56:16 44° ENE 18:00:27 10° SSE
STARLINK-79 4.5 17:52:30 10° W 17:56:22 43° NNW 18:00:14 10° NE
COSMO-SKYMED 1 2.6 17:52:37 10° NNE 17:57:00 85° ESE 18:01:20 10° SSW
STARLINK-1048 4.1 17:53:51 10° W 17:57:00 40° NNW 18:00:10 10° NE
STARLINK-52 3.5 17:54:00 10° NW 17:57:16 46° NNE 18:00:33 10° ESE
Okean-O 3.1 17:52:54 10° S 17:57:18 67° WSW 18:01:45 10° NNW
Cosmos 1707 Rocket 3.8 17:54:12 10° NNW 17:58:40 77° W 18:03:08 10° S
STARLINK-1049 4.1 17:55:34 10° W 17:58:43 39° NNW 18:01:52 10° NE
STARLINK-60 3.2 17:56:30 10° WNW 17:59:47 72° SW 18:03:04 10° SE
STARLINK-1068 3.6 17:56:02 10° SW 18:00:09 71° SE 18:04:18 10° ENE
STARLINK-1051 4.2 17:57:20 10° W 18:00:29 38° NNW 18:03:37 10° NE
STARLINK-1028 4.2 17:57:43 10° W 18:00:52 38° NNW 18:04:01 10° NE
FALCON 9 DEB 3.2 17:58:05 10° NW 18:01:31 64° NNE 18:04:57 10° ESE
Cosmos 2369 Rocket 2.2 17:56:58 10° SSW 18:02:36 75° ESE 18:08:18 10° NNE
STARLINK-1021 4.2 17:59:31 10° W 18:02:38 37° NNW 18:05:47 10° NE
Cosmos 1812 2.7 17:59:50 10° N 18:03:43 82° E 18:07:35 10° S
Cosmos 921 Rocket 3.2 17:59:36 10° SSW 18:04:07 83° WNW 18:08:40 10° NNE
STARLINK-1019 4.3 18:01:18 10° W 18:04:25 36° NNW 18:07:33 10° NE
Ariane Rocket 3.9 18:00:13 10° ESE 18:04:29 28° ENE 18:08:47 10° N
STARLINK-1012 4.3 18:03:07 10° W 18:06:14 35° NNW 18:09:21 10° NE
Lacrosse 5 3.7 18:04:16 10° SE 18:06:28 13° ESE 18:08:21 11° E
Okean 1-7 4.3 18:06:18 10° NNE 18:09:33 20° ENE 18:12:47 10° ESE
STARLINK-1026 4.4 18:06:43 10° W 18:09:49 34° NNW 18:12:55 10° NE
STARLINK-1060 3.6 18:05:58 10° SW 18:10:05 84° SE 18:14:13 10° ENE
STARLINK-1014 4.2 18:06:51 10° W 18:10:10 41° NNW 18:13:30 10° NE
STARLINK-1013 4.4 18:08:34 10° W 18:11:39 33° NNW 18:14:44 10° NE
CZ-2D R/B 3.2 18:09:33 10° SSE 18:13:23 65° ENE 18:17:16 10° N
STARLINK-1009 4.4 18:10:23 10° W 18:13:27 33° NNW 18:16:32 10° NE
STARLINK-1030 3.6 18:10:58 10° SW 18:15:06 90° SSE 18:19:02 11° ENE
STARLINK-1015 4.5 18:12:14 10° W 18:15:18 32° NNW 18:18:22 10° NE
Cosmos 1833 4.4 18:10:52 10° NNW 18:16:33 54° ENE 18:22:09 10° SE
NOSS 2-3 (C) 3.6 18:15:04 10° SSW 18:19:21 80° ESE 18:24:23 10° NE
STARLINK-1020 3.6 18:15:55 10° WSW 18:20:03 84° NW 18:23:48 13° NE
SJ 16-02 2.6 18:18:23 10° N 18:21:51 22° ENE 18:23:52 16° E
STARLINK-1047 3.7 18:18:20 10° WSW 18:22:30 80° NNW 18:26:11 13° NE
H-2A R/B 3.0 18:19:04 10° ESE 18:23:40 30° ENE 18:28:20 10° N
DMSP B5D1-3 4.5 18:19:47 10° NNE 18:24:55 65° ESE 18:30:01 10° S
STARLINK-1052 3.7 18:20:55 10° WSW 18:25:03 78° NW 18:28:35 14° NE
ARGOS 4.1 18:20:37 10° ESE 18:25:04 27° ENE 18:29:33 10° N
CSL-04 Rocket 3.8 18:22:33 10° SSE 18:28:06 86° WSW 18:33:37 10° NNW
Cosmos 2263 4.2 18:24:20 10° SSW 18:30:08 88° ESE 18:35:56 10° NNE
Cosmos 1346 Rocket 2.7 18:27:00 10° S 18:30:57 70° E 18:34:55 10° NNE
BREEZE-M DEB (TANK) 3.1 18:29:27 10° WNW 18:32:11 77° NNE 18:37:09 16° ESE
YAOGAN 1 3.2 18:30:23 10° S 18:34:39 60° W 18:38:57 10° NNW
STARLINK-1033 3.8 18:30:53 10° WSW 18:35:00 68° NNW 18:38:08 17° NE
STARLINK-1041 4.4 18:33:04 10° SSW 18:36:48 34° SE 18:38:25 24° E
Cosmos 1633 Rocket 4.4 18:34:32 10° SSW 18:38:39 42° WNW 18:42:48 10° N
Cosmos 1464 Rocket 4.2 18:33:01 10° SSE 18:39:04 49° E 18:45:10 10° NNE
Cosmos 44 Rocket 4.1 18:37:01 10° NNW 18:41:14 31° NE 18:42:58 24° E
OE (NEXTSAT) 4.4 18:37:53 10° W 18:41:23 67° N 18:42:51 31° E
STARLINK-1038 4.3 18:37:56 10° SSW 18:41:45 37° SE 18:43:12 28° E
STARLINK-1035 4.1 18:38:01 10° WSW 18:42:13 58° NNW 18:45:14 18° NE
CRYOSAT 2 4.4 18:38:26 10° S 18:43:20 82° W 18:48:17 10° N
STARLINK-1024 4.0 18:40:55 10° WSW 18:45:00 59° NNW 18:47:44 20° NE
STARLINK-1046 4.1 18:42:48 10° SSW 18:46:40 40° SE 18:47:57 31° E
Cosmos 1933 Rocket 3.5 18:42:24 10° S 18:46:49 88° WNW 18:51:14 10° N
Cosmos 2297 Rocket 3.9 18:43:56 10° N 18:47:09 15° NE 18:47:52 15° NE
Meteor 1-20 Rocket 4.0 18:45:57 10° S 18:51:22 72° E 18:56:55 10° NNE
Cosmos 2285 Rocket 4.2 18:45:04 10° NNW 18:51:26 74° WSW 18:57:48 10° S
STARLINK-1039 4.0 18:47:42 10° SSW 18:51:37 44° SE 18:52:44 35° E
STARLINK-1027 4.4 18:48:47 10° W 18:52:55 48° NNW 18:55:28 21° NE
STARLINK-1032 4.2 18:50:56 10° WSW 18:54:58 52° NNW 18:57:17 23° NE
Meteor 1-18 Rocket 4.3 18:49:32 10° N 18:55:25 61° ENE 19:01:09 10° SSE
STARLINK-1045 3.9 18:52:37 10° SSW 18:56:36 48° SE 18:57:32 39° E
Cosmos 1943 Rocket 3.7 18:51:45 10° WSW 18:56:48 35° NW 19:01:52 10° N
Cosmos 405 2.9 18:53:37 10° N 18:57:08 60° ENE 18:58:22 35° SE
COSMOS 2487 2.2 18:54:37 10° NNW 18:58:06 79° ENE 18:59:29 34° SSE
MOS 1 4.3 18:52:41 10° SSE 18:58:14 61° ENE 19:03:49 10° N
ADEOS Rocket 3.7 18:50:32 10° NNE 18:58:21 80° WNW 19:05:58 10° SSW
GPS 2-04 Rocket1 4.3 18:55:08 10° SW 18:58:28 23° S 18:59:25 21° SSE
CZ-2C R/B 3.5 18:53:38 11° SE 18:59:00 50° ENE 19:04:30 10° N
Cosmos 2034 Rocket 4.1 18:53:43 10° SSE 18:59:36 49° E 19:05:30 10° NNE
STARLINK-1011 4.3 18:55:56 10° WSW 18:59:57 49° NNW 19:02:03 25° NE
Cosmos 468 Rocket 4.0 18:55:54 10° S 19:01:04 58° ESE 19:06:17 10° NNE
STARLINK-1050 3.7 18:57:35 10° SW 19:01:37 54° SE 19:02:26 45° E
Lacrosse 5 rocket 3.4 18:59:26 10° NNW 19:02:38 18° N 19:04:00 16° NNE
Okean 1 3.2 18:59:01 10° N 19:03:00 61° E 19:04:38 32° SSE
Timation 2 Rocket 4.3 18:56:19 10° NNW 19:03:06 57° ENE 19:07:09 25° SE
Cosmos 1340 4.3 19:00:14 10° SW 19:03:43 35° WNW 19:07:12 10° N
STARLINK-1036 4.4 19:00:59 10° W 19:04:58 46° NNW 19:06:51 27° NNE
Cosmos 2227 Rocket 3.8 19:02:12 10° N 19:05:52 18° NE 19:05:52 18° NE
BREEZE-M DEB (TANK) 3.5 19:03:46 10° WNW 19:06:06 39° NNE 19:06:06 39° NNE
HJ-1C 4.1 19:02:57 10° S 19:06:11 52° W 19:09:26 10° NNW
STARLINK-1055 3.6 19:02:30 10° SW 19:06:34 59° SE 19:07:11 52° ESE
SPOT 3 Rocket 3.9 19:05:25 36° E 19:06:35 41° ENE 19:11:27 10° N
Meteor 1-14 Rocket 4.1 19:04:28 10° S 19:09:56 67° E 19:15:27 10° NNE
Meteor 2-11 Rocket 4.3 19:04:36 10° S 19:10:42 81° E 19:16:48 10° N
STARLINK-1022 3.5 19:07:28 10° SW 19:11:33 64° SE 19:12:00 59° ESE
Gbstr 26 Del rocket 2.9 19:09:12 10° SW 19:13:17 80° SE 19:14:28 49° ENE
Cosmos 1898 Rocket 3.3 19:09:18 10° NNW 19:14:29 75° ENE 19:17:01 31° SSE
STARLINK-1042 3.5 19:12:23 10° SW 19:16:30 70° SE 19:16:45 67° ESE
STARLINK-1056 3.4 19:17:21 10° SW 19:21:29 76° SE 19:21:33 76° SE
Cosmos 1092 Rocket 4.2 19:17:38 10° N 19:23:45 47° ENE 19:24:43 44° ESE
USA 234 4.3 19:21:54 24° NE 19:24:32 33° NNE 19:30:13 10° NW
STARLINK-1054 3.5 19:22:19 10° SW 19:26:20 80° S 19:26:20 80° S
Cosmos 1763 Rocket 3.3 19:21:18 10° SSW 19:26:30 78° ESE 19:31:48 10° NNE
Cosmos 1656 Rocket 4.5 19:22:04 10° SW 19:27:25 50° WNW 19:32:53 10° NNE
Cosmos 1570 Rocket 3.9 19:24:50 10° S 19:29:58 62° ESE 19:30:09 61° E
Cosmos 2219 4.0 19:25:10 10° N 19:29:58 35° NE 19:29:58 35° NE
Meteor 2-4 Rocket 3.8 19:25:11 10° N 19:31:03 61° ENE 19:32:13 51° ESE
Meteor 1-19 Rocket 4.2 19:25:14 10° N 19:31:04 88° W 19:35:17 19° S
STARLINK-1062 3.6 19:27:17 10° SW 19:31:07 76° SW 19:31:07 76° SW
Resurs 01 Rocket 3.5 19:38:52 19° NNE 19:38:52 19° NNE 19:40:19 10° N
STARLINK-1053 3.8 19:32:15 10° WSW 19:35:53 67° WSW 19:35:53 67° WSW
Cosmos 858 Rocket 4.3 19:32:56 10° NNW 19:38:12 88° ENE 19:39:02 64° SSE
STARLINK-1061 4.0 19:37:14 10° WSW 19:40:40 59° WSW 19:40:40 59° WSW
Ariane Rocket 4.3 19:38:29 10° SSW 19:43:16 40° W 19:48:05 10° NNW
Cosmos 220 Rocket 4.4 19:40:24 10° SSW 19:44:02 58° SW 19:44:02 58° SW
SL-08 RB Rocket 3.9 19:45:56 65° NNW 19:45:56 65° NNW 19:49:47 10° NNW
SJ-6B 3.8 19:46:43 41° NW 19:46:43 41° NW 19:49:25 10° NNW
STARLINK-1067 4.3 19:42:13 10° WSW 19:45:26 52° WSW 19:45:26 52° WSW
Okean 1-7 4.4 19:43:15 10° NNW 19:47:15 37° W 19:51:15 10° SSW
Lacrosse 5 2.2 19:43:34 10° SW 19:47:37 56° SSW 19:47:37 56° SSW
MetOp-A 4.0 19:50:10 75° NE 19:50:10 75° NE 19:55:15 10° N
ARGOS Delta rocket 4.0 19:51:19 62° NW 19:51:19 62° NW 19:55:15 10° NNW
CENTAUR R/B 3.9 19:46:48 10° NNW 19:53:49 35° NE 19:54:46 34° NE
Meteor 1-13 Rocket 4.5 19:54:18 10° N 19:59:12 60° NNE 19:59:12 60° NNE
SJ 16-02 2.5 19:56:29 10° NW 20:00:35 39° WSW 20:00:55 38° WSW
H-2A R/B 3.3 19:57:51 10° SSW 20:02:54 41° W 20:08:03 10° NNW
ARGOS 4.1 20:01:41 21° SSW 20:05:04 46° W 20:10:18 10° NNW
ATLAS 3B R/B 4.0 20:00:04 10° NNW 20:05:09 24° NNE 20:05:09 24° NNE
Cosmos 1937 Rocket 4.1 20:03:08 10° NNW 20:08:14 52° WSW 20:08:35 51° WSW
Cosmos 2026 Rocket 4.5 20:24:56 10° N 20:29:34 52° NNW 20:29:34 52° NNW
USA 238 DEB 4.0 20:24:31 10° NW 20:30:44 65° N 20:30:44 65° N
USA 238 4.0 20:24:38 10° NW 20:30:48 64° N 20:30:48 64° N
Cosmos 2297 Rocket 3.5 20:26:33 10° NNW 20:29:41 34° NNW 20:29:41 34° NNW
Lacrosse 5 rocket 4.2 20:38:30 10° NW 20:39:39 17° NNW 20:39:39 17° NNW
Cosmos 2227 Rocket 3.8 20:45:08 10° NNW 20:47:42 28° NNW 20:47:42 28° NNW
BREEZE-M DEB (TANK) 4.4 20:45:43 10° WNW 20:56:33 49° NW 20:56:33 49° NW
USA 234 4.3 21:09:15 39° NNW 21:09:15 39° NNW 21:13:17 10° NW
CENTAUR R/B 4.1 21:37:18 10° NW 21:41:57 40° NW 21:41:57 40° NW
